STARLINK-4319, 53084

Orbit data source: Space-Track

STARLINK-4319, 53084 is a payload satellite owned by SpaceX/Seattle (US) in SSO that was launched on Mon, 11 Jul 2022 UTC via an FALCON 9 launch vehicle from the Air Force Western Test Range (AFWTR). Payload-class satellites include a variety of spacecraft equipped with specific instruments for various scientific and technological missions. These include communications satellites like Starlink; space stations such as the ISS; scientific satellites like the Hubble; Earth observation satellites from companies like Planet Labs, Umbra, and HawkEye 360; GPS; miniature CubeSats for education and research; and military/defense satellites.

Loading next visibility...
Identifier
53084, 2022-077AT
Orbit
SSO
Country
Flag of USUS
Related business
Manufacturer
SpaceX/Seattle
Mission
Operational Commercial Communications
Bus & Motor
STARLINK, Unknown motor
Mass
297 kg wet, ~275 kg dry
Launch date (UTC)
2022-07-11 (4 years ago)
Launch vehicle
FALCON 9
Launch site
Air Force Western Test Range (AFWTR)
Object type
Payload
Rocket body
Debris
Shape & HBR
Box + 1 Pan, 10.1 m
Radar Cross Section
13.562 m², Large (>1 m²)

Expand to show TLE details & history
Last TLE update: 2 days ago

TLE from 2 days ago
0 STARLINK-4319
1 53084U 22077AT  26171.42929035 -.00002724  00000-0 -18488-3 0  9998
2 53084  97.3366 351.3647 0001905 105.2120 254.9318 15.05657406216449
Epoch: 2026-06-20T10:18Z
TLE epoch observation values (Epoch: 2026-06-20T10:18:10.686Z)
Latitude
-0.00004°
Longitude
-71.82386°
Altitude
552.905 km
Speed
7.585 km/s
True Right ascension
23h 25m 27s
True Declination
0° 00' 00"
Sunlit
Object was in daylight at epoch
Visualization orbit readout
Latitude
Unknown
Longitude
Unknown
Altitude
Unknown
Speed
Unknown
Apparent Right ascension
Unknown
Apparent Declination
Unknown
Sunlit
N/A
Visualization observer readout
Local Sidereal Time
22:00:17
Azimuth
Unknown
Elevation
Unknown
Doppler factor
Unknown
Orbital elements
Apogee altitude
547.79 km
Perigee altitude
545.151 km
Semi-major axis
6,924.607 km
Eccentricity
0.00019
Inclination
97.3366°
RAAN
351.3647°
Arg. of periapsis
105.212°
True anomaly
254.91072°
Mean anomaly
254.9318°
Eccentric anomaly
254.92126°
Mean motion
3.76661 °/min
Orbital period
95.58 mins
BSTAR
-0.00018488
Loading maneuver chart data...
Computing Atmospheric mass density...
Loading historical data...
Loading historical data...
Loading historical data...
Loading historical data...
Loading historical data...
Loading historical data...
Loading historical data...

Documentation

Showing up to 5 results
|